User: anonymous   Login
Location: Colle San Luigi
(43.5500°N, 13.4167°E)
Time: 00:34:45
(UTC+00:00)
Language:

Cosmos 2278 - Orbit

View from above orbital plane
View from above orbital plane
View from above satellite
View from above satellite

Ground track
Ground track

The orbit data is extracted from the following two-line orbital elements,

1 23087U 94023A   20188.42206034 -.00000311 +00000-0 -13951-3 0  9997
2 23087 071.0515 188.0086 0010874 303.6286 056.3798 14.13804053351871
Epoch (UTC): 06 July 2020 10:07:46
Eccentricity: 0.0010874
inclination: 71.0515°
perigee height: 838 km
apogee height: 854 km
right ascension of ascending node: 188.0086°
argument of perigee: 303.6286°
revolutions per day: 14.13804053
mean anomaly at epoch: 56.3798°
orbit number at epoch: 35187

The dashed part of the orbit path shows where the satellite is in the earth's shadow,  

DLR